sat.trackr.live / text

‹ back to catalog

UNKNOWN

NORAD 81301

UNKNOWN UNKNOWN UNKNOWN

§ Identity

Operator
Country
Launch date
Launch site
Launch vehicle
Mass (kg)
RCS (m²)

External: N2YO · Heavens-Above

§ Orbital elements

Epoch: 2026-05-19T15:01:20.314848Z

Period
104.59 min
Inclination
66.7583°
Eccentricity
0.0083198
Mean motion
13.76807923 rev/d
Perigee alt
914.1 km
Apogee alt
1,036.4 km
Semi-major
7,353.4 km
B*
2.0941e-4
RAAN
278.7411°
Arg perigee
126.5334°
Mean anomaly
248.8215°
Rev number
62,809

§ Raw data

UNKNOWN1 81301U          26139.62592957  .00000137  00000+0  20941-3 0  99982 81301  66.7583 278.7411 0083198 126.5334 248.8215 13.76807923628094

JSON: /api/v1/satellites/81301 · /tle

For live sub-satellite position, see the globe view (requires WebGL).

§ Visibility from observer

Set your observer location to see the next 7 days of passes ≥ 10°. The values pass through the URL so the page stays shareable.

No JS? Fill the form by hand. The geolocation button needs JavaScript.